�������l�o���
Date,Time,MP-1(��Sv/h),MP-2(��Sv/h),MP-3(��Sv/h),MP-4(��Sv/h),MP-5(��Sv/h),MP-6(��Sv/h),MP-7(��Sv/h),MP-8(��Sv/h),����,����(m/s),���J
2024/01/23,00:00,0.490,0.725,0.467,0.927,0.643,0.307,0.545,0.511,��쐼,7.4,��
2024/01/23,00:10,0.488,0.726,0.467,0.925,0.641,0.307,0.544,0.512,��쐼,6.7,��
2024/01/23,00:20,0.490,0.726,0.467,0.923,0.641,0.307,0.544,0.512,��쐼,5.0,��
2024/01/23,00:30,0.490,0.728,0.467,0.925,0.642,0.308,0.545,0.512,��쐼,4.7,��
2024/01/23,00:40,0.491,0.728,0.467,0.925,0.644,0.307,0.544,0.512,��쐼,3.9,��
2024/01/23,00:50,0.488,0.728,0.466,0.926,0.642,0.307,0.545,0.514,�쐼,3.1,��
2024/01/23,01:00,0.490,0.727,0.466,0.925,0.643,0.308,0.547,0.513,���쐼,2.0,��
2024/01/23,01:10,0.487,0.727,0.467,0.923,0.643,0.307,0.545,0.512,�쐼,2.6,��
2024/01/23,01:20,0.489,0.728,0.467,0.924,0.643,0.306,0.545,0.512,�쐼,4.2,��
2024/01/23,01:30,0.489,0.729,0.470,0.924,0.643,0.307,0.544,0.512,�쐼,4.7,��
2024/01/23,01:40,0.490,0.728,0.467,0.926,0.643,0.308,0.545,0.511,��쐼,5.4,��
2024/01/23,01:50,0.490,0.727,0.469,0.926,0.641,0.307,0.545,0.512,�쐼,4.4,��
2024/01/23,02:00,0.490,0.731,0.468,0.926,0.643,0.306,0.545,0.512,�쐼,4.3,��
2024/01/23,02:10,0.490,0.731,0.468,0.924,0.644,0.307,0.545,0.512,���쐼,5.0,��
2024/01/23,02:20,0.490,0.729,0.466,0.925,0.646,0.308,0.545,0.514,���쐼,4.7,�L
2024/01/23,02:30,0.490,0.731,0.468,0.924,0.642,0.307,0.545,0.512,���쐼,4.4,��
2024/01/23,02:40,0.490,0.730,0.466,0.927,0.645,0.307,0.546,0.513,���k��,4.7,��
2024/01/23,02:50,0.491,0.730,0.469,0.926,0.646,0.307,0.545,0.513,���k��,6.5,��
2024/01/23,03:00,0.491,0.732,0.466,0.924,0.645,0.307,0.545,0.512,���k��,6.4,��
2024/01/23,03:10,0.490,0.734,0.469,0.926,0.645,0.308,0.546,0.512,��,7.4,��
2024/01/23,03:20,0.491,0.732,0.469,0.926,0.642,0.307,0.545,0.513,��,8.7,��
2024/01/23,03:30,0.490,0.730,0.467,0.927,0.645,0.308,0.546,0.512,��,9.1,��
2024/01/23,03:40,0.490,0.732,0.468,0.927,0.645,0.307,0.547,0.513,���k��,9.9,��
2024/01/23,03:50,0.491,0.732,0.467,0.928,0.644,0.306,0.545,0.513,��,10.8,��
2024/01/23,04:00,0.491,0.732,0.468,0.927,0.645,0.307,0.546,0.515,��,9.8,��
2024/01/23,04:10,0.491,0.731,0.469,0.929,0.646,0.308,0.547,0.512,��,11.4,��
2024/01/23,04:20,0.492,0.732,0.468,0.929,0.647,0.308,0.548,0.514,���k��,9.7,��
2024/01/23,04:30,0.493,0.734,0.470,0.930,0.645,0.309,0.547,0.514,���k��,8.0,��
2024/01/23,04:40,0.489,0.734,0.468,0.929,0.647,0.308,0.548,0.512,���k��,6.8,��
2024/01/23,04:50,0.490,0.734,0.467,0.928,0.646,0.308,0.549,0.515,���k��,7.0,��
2024/01/23,05:00,0.491,0.734,0.469,0.929,0.646,0.307,0.547,0.513,���k��,7.6,��
2024/01/23,05:10,0.491,0.734,0.468,0.930,0.647,0.307,0.547,0.514,���k��,9.6,��
2024/01/23,05:20,0.492,0.735,0.469,0.932,0.646,0.308,0.550,0.513,���k��,9.7,��
2024/01/23,05:30,0.492,0.734,0.468,0.928,0.647,0.308,0.549,0.513,���k��,9.0,��
2024/01/23,05:40,0.491,0.735,0.470,0.929,0.648,0.307,0.548,0.515,���k��,8.3,��
2024/01/23,05:50,0.491,0.735,0.470,0.930,0.648,0.308,0.548,0.514,���k��,7.8,��
2024/01/23,06:00,0.493,0.735,0.468,0.931,0.648,0.309,0.549,0.513,�k��,6.5,��
2024/01/23,06:10,0.493,0.734,0.469,0.928,0.649,0.307,0.548,0.514,�k��,4.3,��
2024/01/23,06:20,0.491,0.736,0.470,0.931,0.648,0.308,0.549,0.515,�k��,4.0,��
2024/01/23,06:30,0.493,0.734,0.469,0.928,0.647,0.308,0.548,0.516,�k��,4.1,��
2024/01/23,06:40,0.491,0.735,0.468,0.929,0.647,0.308,0.548,0.515,�k��,4.0,��
2024/01/23,06:50,0.493,0.734,0.470,0.930,0.647,0.308,0.548,0.515,���k��,5.3,��
2024/01/23,07:00,0.492,0.735,0.470,0.931,0.648,0.307,0.548,0.514,���k��,6.7,��
2024/01/23,07:10,0.492,0.735,0.469,0.931,0.646,0.309,0.548,0.514,���k��,8.1,��
2024/01/23,07:20,0.493,0.735,0.469,0.931,0.648,0.308,0.548,0.515,���k��,8.7,��
2024/01/23,07:30,0.493,0.735,0.469,0.931,0.649,0.308,0.547,0.515,���k��,11.3,��
2024/01/23,07:40,0.492,0.735,0.468,0.930,0.651,0.307,0.548,0.516,���k��,9.2,��
2024/01/23,07:50,0.492,0.739,0.468,0.933,0.649,0.308,0.551,0.516,���k��,10.8,��
2024/01/23,08:00,0.493,0.736,0.470,0.932,0.649,0.308,0.551,0.516,���k��,8.7,��
2024/01/23,08:10,0.494,0.738,0.468,0.932,0.648,0.308,0.549,0.516,���k��,8.1,��
2024/01/23,08:20,0.492,0.737,0.470,0.931,0.650,0.308,0.549,0.516,���k��,8.6,��
2024/01/23,08:30,0.493,0.735,0.469,0.933,0.652,0.309,0.550,0.514,���k��,9.6,��
2024/01/23,08:40,0.493,0.737,0.472,0.932,0.650,0.307,0.549,0.516,���k��,9.2,��
2024/01/23,08:50,0.494,0.736,0.470,0.933,0.650,0.308,0.551,0.516,���k��,8.0,��
2024/01/23,09:00,0.494,0.737,0.470,0.934,0.652,0.308,0.549,0.515,��,6.1,��
2024/01/23,09:10,0.494,0.736,0.470,0.934,0.651,0.308,0.549,0.516,���k��,6.4,��
2024/01/23,09:20,0.496,0.738,0.470,0.934,0.650,0.308,0.549,0.517,���k��,6.2,��
2024/01/23,09:30,0.496,0.738,0.471,0.932,0.651,0.307,0.549,0.516,�k��,5.9,��
2024/01/23,09:40,0.495,0.738,0.470,0.936,0.651,0.308,0.548,0.516,���k��,6.3,��
2024/01/23,09:50,0.496,0.738,0.472,0.933,0.650,0.308,0.549,0.516,���k��,7.7,��
2024/01/23,10:00,0.496,0.738,0.469,0.934,0.651,0.308,0.550,0.517,���k��,6.9,��
2024/01/23,10:10,0.495,0.741,0.471,0.937,0.651,0.309,0.549,0.517,���k��,8.2,��
2024/01/23,10:20,0.495,0.737,0.470,0.937,0.652,0.309,0.548,0.517,���k��,7.0,��
2024/01/23,10:30,0.495,0.739,0.469,0.936,0.651,0.309,0.549,0.516,���k��,8.4,��
2024/01/23,10:40,0.496,0.739,0.472,0.934,0.652,0.309,0.548,0.518,���k��,7.8,��
2024/01/23,10:50,0.497,0.739,0.472,0.936,0.653,0.310,0.549,0.519,���k��,5.2,��
2024/01/23,11:00,0.498,0.740,0.472,0.937,0.653,0.309,0.548,0.518,���k��,5.8,��
2024/01/23,11:10,0.498,0.739,0.472,0.938,0.654,0.309,0.550,0.517,���k��,6.0,��
2024/01/23,11:20,0.497,0.742,0.473,0.940,0.653,0.310,0.549,0.519,���k��,5.6,��
2024/01/23,11:30,0.497,0.743,0.473,0.938,0.655,0.308,0.549,0.519,���k��,4.8,��
2024/01/23,11:40,0.499,0.740,0.471,0.939,0.653,0.309,0.549,0.519,���k��,4.3,��
2024/01/23,11:50,0.498,0.742,0.473,0.939,0.654,0.309,0.548,0.518,���k��,5.4,��
2024/01/23,12:00,0.496,0.742,0.472,0.937,0.656,0.309,0.548,0.520,���k��,7.4,��
2024/01/23,12:10,0.497,0.743,0.471,0.938,0.656,0.310,0.549,0.517,���k��,4.2,��
2024/01/23,12:20,0.498,0.742,0.474,0.939,0.654,0.310,0.549,0.519,�k��,5.7,��
2024/01/23,12:30,0.500,0.743,0.472,0.937,0.656,0.308,0.551,0.517,���k��,4.6,��
2024/01/23,12:40,0.498,0.742,0.473,0.937,0.656,0.309,0.549,0.517,��,5.0,��
2024/01/23,12:50,0.499,0.741,0.472,0.939,0.655,0.310,0.549,0.518,���k��,8.8,��
2024/01/23,13:00,0.500,0.744,0.473,0.939,0.657,0.310,0.549,0.518,���k��,6.9,��
2024/01/23,13:10,0.498,0.743,0.473,0.939,0.657,0.310,0.550,0.519,���k��,6.6,��
2024/01/23,13:20,0.498,0.744,0.473,0.938,0.657,0.310,0.549,0.518,�k��,8.2,��
2024/01/23,13:30,0.499,0.744,0.473,0.938,0.657,0.309,0.548,0.517,���k��,7.9,��
2024/01/23,13:40,0.499,0.746,0.473,0.938,0.656,0.309,0.549,0.518,���k��,10.5,��
2024/01/23,13:50,0.499,0.744,0.472,0.938,0.657,0.310,0.550,0.520,���k��,8.7,��
2024/01/23,14:00,0.498,0.745,0.474,0.940,0.656,0.310,0.549,0.519,�k��,7.6,��
2024/01/23,14:10,0.499,0.742,0.472,0.942,0.658,0.310,0.550,0.520,���k��,9.1,��
2024/01/23,14:20,0.499,0.744,0.474,0.938,0.656,0.309,0.550,0.518,���k��,9.5,��
2024/01/23,14:30,0.498,0.744,0.475,0.942,0.656,0.310,0.549,0.519,���k��,10.5,��
2024/01/23,14:40,0.498,0.745,0.473,0.940,0.657,0.310,0.549,0.520,���k��,10.3,��
2024/01/23,14:50,0.499,0.746,0.474,0.941,0.657,0.310,0.553,0.519,���k��,8.7,��
2024/01/23,15:00,0.501,0.745,0.474,0.942,0.659,0.311,0.551,0.519,���k��,8.5,��
2024/01/23,15:10,0.499,0.746,0.474,0.943,0.657,0.310,0.550,0.519,���k��,10.7,��
2024/01/23,15:20,0.499,0.746,0.476,0.943,0.657,0.309,0.552,0.521,���k��,10.5,��
2024/01/23,15:30,0.499,0.745,0.475,0.941,0.659,0.310,0.550,0.522,�k��,10.3,��
2024/01/23,15:40,0.497,0.744,0.476,0.943,0.658,0.310,0.550,0.522,�k��,8.2,��
2024/01/23,15:50,0.499,0.744,0.476,0.943,0.657,0.310,0.552,0.521,���k��,5.9,��
2024/01/23,16:00,0.499,0.745,0.477,0.940,0.657,0.309,0.550,0.520,���k��,7.1,��
2024/01/23,16:10,0.501,0.745,0.474,0.943,0.658,0.310,0.550,0.521,���k��,5.3,��
2024/01/23,16:20,0.499,0.746,0.476,0.943,0.660,0.311,0.552,0.519,�k��,4.5,��
2024/01/23,16:30,0.500,0.746,0.475,0.942,0.660,0.311,0.551,0.519,���k��,3.9,��
2024/01/23,16:40,0.499,0.743,0.475,0.943,0.660,0.311,0.551,0.519,���k��,4.2,��
2024/01/23,16:50,0.498,0.746,0.477,0.944,0.659,0.311,0.551,0.521,�k��,4.2,��
2024/01/23,17:00,0.499,0.747,0.475,0.942,0.659,0.310,0.551,0.519,�k��,3.7,��
2024/01/23,17:10,0.501,0.746,0.475,0.945,0.659,0.311,0.552,0.520,�k�k��,2.8,��
2024/01/23,17:20,0.499,0.748,0.475,0.943,0.660,0.309,0.551,0.519,�k,3.3,��
2024/01/23,17:30,0.500,0.746,0.474,0.944,0.660,0.311,0.552,0.520,�k,5.0,��
2024/01/23,17:40,0.501,0.747,0.475,0.943,0.659,0.310,0.551,0.519,�k,4.0,��
2024/01/23,17:50,0.500,0.747,0.474,0.944,0.661,0.309,0.551,0.519,�k,6.1,��
2024/01/23,18:00,0.499,0.747,0.475,0.944,0.657,0.310,0.553,0.520,�k,5.4,��
2024/01/23,18:10,0.500,0.747,0.473,0.943,0.659,0.308,0.553,0.518,�k,3.3,��
2024/01/23,18:20,0.499,0.746,0.475,0.942,0.657,0.311,0.553,0.518,�k�k��,4.1,��
2024/01/23,18:30,0.500,0.748,0.476,0.943,0.658,0.311,0.553,0.519,�k,3.0,��
2024/01/23,18:40,0.500,0.750,0.474,0.944,0.661,0.310,0.553,0.519,�k�k��,2.2,��
2024/01/23,18:50,0.500,0.748,0.474,0.942,0.659,0.309,0.553,0.520,�k,3.0,��
2024/01/23,19:00,0.499,0.748,0.476,0.944,0.658,0.310,0.552,0.520,�k�k��,4.6,��
2024/01/23,19:10,0.500,0.747,0.475,0.944,0.661,0.310,0.552,0.517,�k�k��,5.1,��
2024/01/23,19:20,0.502,0.748,0.475,0.942,0.659,0.310,0.555,0.519,�k,5.0,��
2024/01/23,19:30,0.500,0.748,0.474,0.944,0.660,0.310,0.553,0.517,�k,4.8,��
2024/01/23,19:40,0.501,0.747,0.475,0.940,0.658,0.312,0.554,0.519,�k,4.0,��
2024/01/23,19:50,0.500,0.747,0.475,0.944,0.660,0.311,0.553,0.518,�k,4.6,��
2024/01/23,20:00,0.501,0.749,0.475,0.944,0.660,0.309,0.551,0.519,�k,4.3,��
2024/01/23,20:10,0.500,0.750,0.475,0.945,0.661,0.311,0.554,0.519,�k,5.4,��
2024/01/23,20:20,0.497,0.748,0.476,0.944,0.662,0.311,0.554,0.517,�k,5.3,��
2024/01/23,20:30,0.499,0.748,0.475,0.943,0.661,0.309,0.553,0.518,�k�k��,4.4,��
2024/01/23,20:40,0.499,0.748,0.475,0.943,0.661,0.311,0.553,0.518,�k�k��,3.3,��
2024/01/23,20:50,0.501,0.748,0.476,0.944,0.659,0.309,0.553,0.518,�k�k��,2.8,��
2024/01/23,21:00,0.500,0.747,0.476,0.946,0.662,0.310,0.553,0.518,�k,2.3,��
2024/01/23,21:10,0.501,0.747,0.474,0.945,0.662,0.310,0.553,0.519,�k,2.2,��
2024/01/23,21:20,0.499,0.749,0.476,0.940,0.661,0.311,0.554,0.519,�k�k��,3.1,��
2024/01/23,21:30,0.499,0.748,0.474,0.946,0.661,0.310,0.554,0.518,�k�k��,2.5,��
2024/01/23,21:40,0.502,0.748,0.476,0.943,0.661,0.311,0.553,0.517,�k��,2.0,��
2024/01/23,21:50,0.500,0.749,0.475,0.944,0.660,0.311,0.554,0.518,���k��,2.0,��
2024/01/23,22:00,0.501,0.749,0.475,0.943,0.662,0.310,0.552,0.518,�k��,1.2,��
2024/01/23,22:10,0.501,0.748,0.475,0.943,0.663,0.310,0.554,0.518,�k,0.9,��
2024/01/23,22:20,0.499,0.750,0.476,0.944,0.661,0.312,0.554,0.518,�k��,2.9,��
2024/01/23,22:30,0.500,0.748,0.475,0.944,0.660,0.312,0.555,0.518,���k��,2.0,��
2024/01/23,22:40,0.500,0.749,0.475,0.944,0.664,0.312,0.555,0.519,�k�k��,2.8,��
2024/01/23,22:50,0.503,0.748,0.475,0.946,0.661,0.311,0.555,0.518,�k�k��,2.6,��
2024/01/23,23:00,0.502,0.752,0.476,0.944,0.661,0.312,0.552,0.518,�k��,3.5,��
2024/01/23,23:10,0.501,0.749,0.476,0.943,0.663,0.312,0.554,0.519,�k��,4.7,��
2024/01/23,23:20,0.502,0.750,0.476,0.944,0.665,0.310,0.554,0.518,�k��,4.3,��
2024/01/23,23:30,0.501,0.751,0.476,0.945,0.662,0.311,0.555,0.518,�k��,5.1,��
2024/01/23,23:40,0.501,0.749,0.478,0.946,0.665,0.312,0.556,0.520,�k��,5.1,��
2024/01/23,23:50,0.502,0.748,0.476,0.945,0.662,0.312,0.553,0.519,�k��,5.3,��
